Time,TemperatureF,DewpointF,PressureIn,WindDirection,WindDirectionDegrees,WindSpeedMPH,WindSpeedGustMPH,Humidity,HourlyPrecipIn,Conditions,Clouds,dailyrainin,SoftwareType,DateUTC
2013-11-11 00:01:00,52.3,44.6,30.09,North,0,0.0,0.0,75,0.00,CLR,CLR,0.00,WeatherDisplay:10.37,2013-11-11 05:01:00,
2013-11-11 00:02:00,52.3,44.6,30.09,North,0,0.0,0.0,75,0.00,CLR,CLR,0.00,WeatherDisplay:10.37,2013-11-11 05:02:00,
2013-11-11 00:03:00,52.3,44.6,30.09,North,0,0.0,0.0,75,0.00,CLR,CLR,0.00,WeatherDisplay:10.37,2013-11-11 05:03:00,
2013-11-11 00:08:00,52.3,44.6,30.12,North,0,0.0,0.0,75,0.00,CLR,CLR,0.00,WeatherDisplay:10.37,2013-11-11 05:08:00,
2013-11-11 00:13:00,52.2,44.5,30.12,North,0,0.0,0.0,75,0.00,CLR,CLR,0.00,WeatherDisplay:10.37,2013-11-11 05:13:00,
2013-11-11 00:18:00,52.2,44.1,30.12,North,0,0.0,0.0,74,0.00,CLR,CLR,0.00,WeatherDisplay:10.37,2013-11-11 05:18:00,
2013-11-11 00:23:00,52.2,43.8,30.12,North,0,0.0,0.0,73,0.00,CLR,CLR,0.00,WeatherDisplay:10.37,2013-11-11 05:23:00,
2013-11-11 00:28:00,52.3,43.9,30.12,North,0,0.0,0.0,73,0.00,CLR,CLR,0.00,WeatherDisplay:10.37,2013-11-11 05:28:00,
2013-11-11 00:33:00,52.0,43.6,30.12,North,0,0.0,0.0,73,0.00,CLR,CLR,0.00,WeatherDisplay:10.37,2013-11-11 05:33:00,
2013-11-11 00:38:00,52.2,43.4,30.12,North,0,0.0,0.0,72,0.00,CLR,CLR,0.00,WeatherDisplay:10.37,2013-11-11 05:38:00,
2013-11-11 00:43:00,52.2,43.8,30.12,North,0,0.0,0.0,73,0.00,CLR,CLR,0.00,WeatherDisplay:10.37,2013-11-11 05:43:00,
2013-11-11 00:48:00,52.0,43.9,30.12,North,0,0.0,0.0,74,0.00,CLR,CLR,0.00,WeatherDisplay:10.37,2013-11-11 05:48:00,
2013-11-11 00:53:00,52.2,44.8,30.12,North,0,0.0,0.0,76,0.00,CLR,CLR,0.00,WeatherDisplay:10.37,2013-11-11 05:53:00,
2013-11-11 00:58:00,52.5,45.5,30.12,North,0,0.0,0.0,77,0.00,CLR,CLR,0.00,WeatherDisplay:10.37,2013-11-11 05:58:00,
2013-11-11 01:03:00,52.9,46.2,30.12,North,0,0.0,0.0,78,0.00,CLR,CLR,0.00,WeatherDisplay:10.37,2013-11-11 06:03:00,
2013-11-11 01:08:00,53.1,46.4,30.15,North,0,0.0,0.0,78,0.00,CLR,CLR,0.00,WeatherDisplay:10.37,2013-11-11 06:08:00,
2013-11-11 01:13:00,53.1,46.4,30.15,North,0,0.0,0.0,78,0.00,CLR,CLR,0.00,WeatherDisplay:10.37,2013-11-11 06:13:00,
2013-11-11 01:18:00,53.1,46.0,30.15,North,0,0.0,0.0,77,0.00,CLR,CLR,0.00,WeatherDisplay:10.37,2013-11-11 06:18:00,
2013-11-11 01:23:00,53.2,45.5,30.15,North,0,0.0,0.0,75,0.00,CLR,CLR,0.00,WeatherDisplay:10.37,2013-11-11 06:23:00,
2013-11-11 01:28:00,53.1,45.0,30.15,North,0,0.0,0.0,74,0.00,CLR,CLR,0.00,WeatherDisplay:10.37,2013-11-11 06:28:00,
2013-11-11 01:33:00,53.1,44.3,30.15,North,0,0.0,0.0,72,0.00,CLR,CLR,0.00,WeatherDisplay:10.37,2013-11-11 06:33:00,
2013-11-11 01:38:00,52.9,44.1,30.15,North,0,0.0,0.0,72,0.00,CLR,CLR,0.00,WeatherDisplay:10.37,2013-11-11 06:38:00,
2013-11-11 01:43:00,52.3,43.9,30.15,North,0,0.0,0.0,73,0.00,CLR,CLR,0.00,WeatherDisplay:10.37,2013-11-11 06:43:00,
2013-11-11 01:48:00,51.8,43.8,30.15,North,0,0.0,0.0,74,0.00,CLR,CLR,0.00,WeatherDisplay:10.37,2013-11-11 06:48:00,
2013-11-11 01:53:00,52.0,43.9,30.15,North,0,0.0,0.0,74,0.00,CLR,CLR,0.00,WeatherDisplay:10.37,2013-11-11 06:53:00,
2013-11-11 01:58:00,51.6,43.2,30.15,North,0,0.0,0.0,73,0.00,CLR,CLR,0.00,WeatherDisplay:10.37,2013-11-11 06:58:00,
2013-11-11 02:03:00,51.4,43.1,30.15,North,0,0.0,0.0,73,0.00,CLR,CLR,0.00,WeatherDisplay:10.37,2013-11-11 07:03:00,
2013-11-11 02:08:00,51.4,42.7,30.15,North,0,0.0,0.0,72,0.00,CLR,CLR,0.00,WeatherDisplay:10.37,2013-11-11 07:08:00,
2013-11-11 02:13:00,51.3,42.5,30.15,North,0,0.0,0.0,72,0.00,CLR,CLR,0.00,WeatherDisplay:10.37,2013-11-11 07:13:00,
2013-11-11 02:18:00,51.3,42.2,30.15,North,0,0.0,0.0,71,0.00,CLR,CLR,0.00,WeatherDisplay:10.37,2013-11-11 07:18:00,
2013-11-11 02:23:00,50.9,41.8,30.15,North,0,0.0,0.0,71,0.00,CLR,CLR,0.00,WeatherDisplay:10.37,2013-11-11 07:23:00,
2013-11-11 02:28:00,50.9,41.8,30.15,North,0,0.0,0.0,71,0.00,CLR,CLR,0.00,WeatherDisplay:10.37,2013-11-11 07:28:00,
2013-11-11 02:33:00,50.9,41.5,30.15,North,0,0.0,0.0,70,0.00,CLR,CLR,0.00,WeatherDisplay:10.37,2013-11-11 07:33:00,
2013-11-11 02:38:00,50.5,41.5,30.15,North,0,0.0,0.0,71,0.00,CLR,CLR,0.00,WeatherDisplay:10.37,2013-11-11 07:38:00,
2013-11-11 02:43:00,50.4,41.3,30.15,North,0,0.0,0.0,71,0.00,CLR,CLR,0.00,WeatherDisplay:10.37,2013-11-11 07:43:00,
2013-11-11 02:48:00,50.2,41.1,30.15,North,0,0.0,0.0,71,0.00,CLR,CLR,0.00,WeatherDisplay:10.37,2013-11-11 07:48:00,
2013-11-11 02:53:00,50.2,41.1,30.15,North,0,0.0,0.0,71,0.00,CLR,CLR,0.00,WeatherDisplay:10.37,2013-11-11 07:53:00,
2013-11-11 02:58:00,50.0,41.0,30.15,North,0,0.0,0.0,71,0.00,CLR,CLR,0.00,WeatherDisplay:10.37,2013-11-11 07:58:00,
2013-11-11 03:03:00,49.6,40.6,30.15,North,0,0.0,0.0,71,0.00,CLR,CLR,0.00,WeatherDisplay:10.37,2013-11-11 08:03:00,
2013-11-11 03:08:00,49.8,40.8,30.18,North,0,0.0,0.0,71,0.00,CLR,CLR,0.00,WeatherDisplay:10.37,2013-11-11 08:08:00,
2013-11-11 03:13:00,49.8,40.4,30.18,North,0,0.0,0.0,70,0.00,CLR,CLR,0.00,WeatherDisplay:10.37,2013-11-11 08:13:00,
2013-11-11 03:18:00,49.1,40.1,30.18,North,0,0.0,0.0,71,0.00,CLR,CLR,0.00,WeatherDisplay:10.37,2013-11-11 08:18:00,
2013-11-11 03:23:00,49.5,40.1,30.18,North,0,0.0,0.0,70,0.00,CLR,CLR,0.00,WeatherDisplay:10.37,2013-11-11 08:23:00,
2013-11-11 03:28:00,49.3,39.5,30.18,North,0,0.0,0.0,69,0.00,CLR,CLR,0.00,WeatherDisplay:10.37,2013-11-11 08:28:00,
2013-11-11 03:33:00,49.5,38.6,30.18,North,0,0.0,0.0,66,0.00,CLR,CLR,0.00,WeatherDisplay:10.37,2013-11-11 08:33:00,
2013-11-11 03:39:00,49.3,38.4,30.18,North,0,0.0,0.0,66,0.00,CLR,CLR,0.00,WeatherDisplay:10.37,2013-11-11 08:39:00,
2013-11-11 03:44:00,48.9,37.7,30.18,North,0,0.0,0.0,65,0.00,CLR,CLR,0.00,WeatherDisplay:10.37,2013-11-11 08:44:00,
2013-11-11 03:49:00,48.9,37.3,30.18,North,0,0.0,0.0,64,0.00,CLR,CLR,0.00,WeatherDisplay:10.37,2013-11-11 08:49:00,
2013-11-11 03:54:00,48.7,37.1,30.18,North,0,0.0,0.0,64,0.00,CLR,CLR,0.00,WeatherDisplay:10.37,2013-11-11 08:54:00,
2013-11-11 03:59:00,48.6,36.9,30.18,North,0,0.0,0.0,64,0.00,CLR,CLR,0.00,WeatherDisplay:10.37,2013-11-11 08:59:00,
2013-11-11 04:04:00,48.4,37.2,30.18,North,0,0.0,0.0,65,0.00,CLR,CLR,0.00,WeatherDisplay:10.37,2013-11-11 09:04:00,
2013-11-11 04:09:00,48.4,37.2,30.18,North,0,0.0,0.0,65,0.00,CLR,CLR,0.00,WeatherDisplay:10.37,2013-11-11 09:09:00,
2013-11-11 04:14:00,48.2,37.0,30.18,North,0,0.0,0.0,65,0.00,CLR,CLR,0.00,WeatherDisplay:10.37,2013-11-11 09:14:00,
2013-11-11 04:19:00,47.8,37.0,30.18,North,0,0.0,0.0,66,0.00,CLR,CLR,0.00,WeatherDisplay:10.37,2013-11-11 09:19:00,
2013-11-11 04:24:00,47.8,37.0,30.18,North,0,0.0,0.0,66,0.00,CLR,CLR,0.00,WeatherDisplay:10.37,2013-11-11 09:24:00,
2013-11-11 04:29:00,47.7,37.2,30.18,North,0,0.0,0.0,67,0.00,CLR,CLR,0.00,WeatherDisplay:10.37,2013-11-11 09:29:00,
2013-11-11 04:34:00,47.5,37.1,30.18,North,0,0.0,0.0,67,0.00,CLR,CLR,0.00,WeatherDisplay:10.37,2013-11-11 09:34:00,
2013-11-11 04:39:00,47.5,37.4,30.18,North,0,0.0,0.0,68,0.00,CLR,CLR,0.00,WeatherDisplay:10.37,2013-11-11 09:39:00,
2013-11-11 04:44:00,47.3,37.3,30.18,North,0,0.0,0.0,68,0.00,CLR,CLR,0.00,WeatherDisplay:10.37,2013-11-11 09:44:00,
2013-11-11 04:49:00,47.1,37.1,30.18,North,0,0.0,0.0,68,0.00,CLR,CLR,0.00,WeatherDisplay:10.37,2013-11-11 09:49:00,
2013-11-11 04:54:00,46.9,37.3,30.18,North,0,0.0,0.0,69,0.00,CLR,CLR,0.00,WeatherDisplay:10.37,2013-11-11 09:54:00,
2013-11-11 04:59:00,46.6,37.0,30.18,North,0,0.0,0.0,69,0.00,CLR,CLR,0.00,WeatherDisplay:10.37,2013-11-11 09:59:00,
2013-11-11 05:04:00,46.4,37.1,30.18,North,0,0.0,0.0,70,0.00,CLR,CLR,0.00,WeatherDisplay:10.37,2013-11-11 10:04:00,
2013-11-11 05:09:00,46.4,37.1,30.18,North,0,0.0,0.0,70,0.00,CLR,CLR,0.00,WeatherDisplay:10.37,2013-11-11 10:09:00,
2013-11-11 05:14:00,46.4,37.5,30.18,North,0,0.0,0.0,71,0.00,CLR,CLR,0.00,WeatherDisplay:10.37,2013-11-11 10:14:00,
2013-11-11 05:19:00,46.2,37.3,30.18,North,0,0.0,0.0,71,0.00,CLR,CLR,0.00,WeatherDisplay:10.37,2013-11-11 10:19:00,
2013-11-11 05:24:00,46.0,37.5,30.21,North,0,0.0,0.0,72,0.00,CLR,CLR,0.00,WeatherDisplay:10.37,2013-11-11 10:24:00,
2013-11-11 05:29:00,46.0,37.5,30.21,North,0,0.0,0.0,72,0.00,CLR,CLR,0.00,WeatherDisplay:10.37,2013-11-11 10:29:00,
2013-11-11 05:34:00,45.7,37.2,30.21,North,0,0.0,0.0,72,0.00,CLR,CLR,0.00,WeatherDisplay:10.37,2013-11-11 10:34:00,
2013-11-11 05:39:00,45.9,37.7,30.21,North,0,0.0,0.0,73,0.00,CLR,CLR,0.00,WeatherDisplay:10.37,2013-11-11 10:39:00,
2013-11-11 05:44:00,45.5,37.3,30.21,North,0,0.0,0.0,73,0.00,CLR,CLR,0.00,WeatherDisplay:10.37,2013-11-11 10:44:00,
2013-11-11 05:49:00,45.1,37.0,30.21,North,0,0.0,0.0,73,0.00,CLR,CLR,0.00,WeatherDisplay:10.37,2013-11-11 10:49:00,
2013-11-11 05:54:00,45.0,37.2,30.21,North,0,0.0,0.0,74,0.00,CLR,CLR,0.00,WeatherDisplay:10.37,2013-11-11 10:54:00,
2013-11-11 05:59:00,44.8,37.0,30.21,North,0,0.0,0.0,74,0.00,CLR,CLR,0.00,WeatherDisplay:10.37,2013-11-11 10:59:00,
2013-11-11 06:04:00,44.8,37.0,30.21,North,0,0.0,0.0,74,0.00,CLR,CLR,0.00,WeatherDisplay:10.37,2013-11-11 11:04:00,
2013-11-11 06:09:00,44.8,37.3,30.21,North,0,0.0,0.0,75,0.00,CLR,CLR,0.00,WeatherDisplay:10.37,2013-11-11 11:09:00,
2013-11-11 06:14:00,44.6,37.2,30.21,North,0,0.0,0.0,75,0.00,CLR,CLR,0.00,WeatherDisplay:10.37,2013-11-11 11:14:00,
2013-11-11 06:19:00,44.2,37.2,30.21,North,0,0.0,0.0,76,0.00,CLR,CLR,0.00,WeatherDisplay:10.37,2013-11-11 11:19:00,
2013-11-11 06:24:00,44.2,37.2,30.21,North,0,0.0,0.0,76,0.00,CLR,CLR,0.00,WeatherDisplay:10.37,2013-11-11 11:24:00,
2013-11-11 06:29:00,44.1,37.0,30.21,North,0,0.0,0.0,76,0.00,CLR,CLR,0.00,WeatherDisplay:10.37,2013-11-11 11:29:00,
2013-11-11 06:34:00,43.9,37.1,30.21,North,0,0.0,0.0,77,0.00,CLR,CLR,0.00,WeatherDisplay:10.37,2013-11-11 11:34:00,
2013-11-11 06:39:00,43.9,37.1,30.21,North,0,0.0,0.0,77,0.00,CLR,CLR,0.00,WeatherDisplay:10.37,2013-11-11 11:39:00,
2013-11-11 06:44:00,44.2,37.5,30.21,North,0,0.0,0.0,77,0.00,CLR,CLR,0.00,WeatherDisplay:10.37,2013-11-11 11:44:00,
2013-11-11 06:49:00,44.4,37.7,30.21,North,0,0.0,0.0,77,0.00,CLR,CLR,0.00,WeatherDisplay:10.37,2013-11-11 11:49:00,
2013-11-11 06:54:00,44.6,37.5,30.21,North,0,0.0,0.0,76,0.00,CLR,CLR,0.00,WeatherDisplay:10.37,2013-11-11 11:54:00,
2013-11-11 06:59:00,44.6,37.5,30.21,North,0,0.0,0.0,76,0.00,CLR,CLR,0.00,WeatherDisplay:10.37,2013-11-11 11:59:00,
2013-11-11 07:04:00,44.6,37.5,30.21,North,0,0.0,0.0,76,0.00,CLR,CLR,0.00,WeatherDisplay:10.37,2013-11-11 12:04:00,
2013-11-11 07:09:00,45.0,37.8,30.21,North,0,0.0,0.0,76,0.00,CLR,CLR,0.00,WeatherDisplay:10.37,2013-11-11 12:09:00,
2013-11-11 07:14:00,45.1,38.0,30.21,North,0,0.0,0.0,76,0.00,CLR,CLR,0.00,WeatherDisplay:10.37,2013-11-11 12:14:00,
2013-11-11 07:19:00,45.5,38.0,30.21,North,0,0.0,0.0,75,0.00,CLR,CLR,0.00,WeatherDisplay:10.37,2013-11-11 12:19:00,
2013-11-11 07:24:00,45.9,38.4,30.21,North,0,0.0,0.0,75,0.00,CLR,CLR,0.00,WeatherDisplay:10.37,2013-11-11 12:24:00,
2013-11-11 07:29:00,46.6,38.7,30.21,North,0,0.0,0.0,74,0.00,CLR,CLR,0.00,WeatherDisplay:10.37,2013-11-11 12:29:00,
2013-11-11 07:34:00,46.9,38.7,30.21,North,0,0.0,0.0,73,0.00,CLR,CLR,0.00,WeatherDisplay:10.37,2013-11-11 12:34:00,
2013-11-11 07:39:00,47.3,39.1,30.24,North,0,0.0,0.0,73,0.00,CLR,CLR,0.00,WeatherDisplay:10.37,2013-11-11 12:39:00,
2013-11-11 07:44:00,47.8,39.2,30.24,North,0,0.0,0.0,72,0.00,CLR,CLR,0.00,WeatherDisplay:10.37,2013-11-11 12:44:00,
2013-11-11 07:49:00,48.4,39.4,30.24,North,0,0.0,0.0,71,0.00,CLR,CLR,0.00,WeatherDisplay:10.37,2013-11-11 12:49:00,
2013-11-11 07:54:00,48.7,39.4,30.24,North,0,0.0,0.0,70,0.00,CLR,CLR,0.00,WeatherDisplay:10.37,2013-11-11 12:54:00,
2013-11-11 07:59:00,48.9,38.8,30.24,North,0,0.0,0.0,68,0.00,CLR,CLR,0.00,WeatherDisplay:10.37,2013-11-11 12:59:00,
2013-11-11 08:04:00,49.5,39.0,30.24,North,0,0.0,0.0,67,0.00,CLR,CLR,0.00,WeatherDisplay:10.37,2013-11-11 13:04:00,
2013-11-11 08:09:00,50.0,39.1,30.24,North,0,0.0,0.0,66,0.00,CLR,CLR,0.00,WeatherDisplay:10.37,2013-11-11 13:09:00,
2013-11-11 08:14:00,50.4,39.4,30.24,North,0,0.0,0.0,66,0.00,CLR,CLR,0.00,WeatherDisplay:10.37,2013-11-11 13:14:00,
2013-11-11 08:20:00,50.9,39.5,30.24,North,0,0.0,0.0,65,0.00,CLR,CLR,0.00,WeatherDisplay:10.37,2013-11-11 13:20:00,
2013-11-11 08:25:00,51.3,39.9,30.24,North,0,0.0,0.0,65,0.00,CLR,CLR,0.00,WeatherDisplay:10.37,2013-11-11 13:25:00,
2013-11-11 08:30:00,51.8,40.0,30.24,North,0,0.0,0.0,64,0.00,CLR,CLR,0.00,WeatherDisplay:10.37,2013-11-11 13:30:00,
2013-11-11 08:35:00,52.5,40.7,30.24,North,0,0.0,0.0,64,0.00,CLR,CLR,0.00,WeatherDisplay:10.37,2013-11-11 13:35:00,
2013-11-11 08:40:00,52.5,39.5,30.24,North,0,0.0,0.0,61,0.00,CLR,CLR,0.00,WeatherDisplay:10.37,2013-11-11 13:40:00,
2013-11-11 08:45:00,52.5,39.0,30.24,North,0,0.0,0.0,60,0.00,CLR,CLR,0.00,WeatherDisplay:10.37,2013-11-11 13:45:00,
2013-11-11 08:50:00,53.4,40.3,30.24,North,0,0.0,0.0,61,0.00,CLR,CLR,0.00,WeatherDisplay:10.37,2013-11-11 13:50:00,
2013-11-11 08:55:00,54.0,40.4,30.24,North,0,0.0,0.0,60,0.00,CLR,CLR,0.00,WeatherDisplay:10.37,2013-11-11 13:55:00,
2013-11-11 09:00:00,54.0,39.5,30.24,North,0,0.0,0.0,58,0.00,CLR,CLR,0.00,WeatherDisplay:10.37,2013-11-11 14:00:00,
2013-11-11 09:05:00,54.5,40.5,30.24,North,0,0.0,0.0,59,0.00,CLR,CLR,0.00,WeatherDisplay:10.37,2013-11-11 14:05:00,
2013-11-11 09:10:00,54.1,38.8,30.24,North,0,0.0,0.0,56,0.00,CLR,CLR,0.00,WeatherDisplay:10.37,2013-11-11 14:10:00,
2013-11-11 09:15:00,54.0,38.1,30.24,North,0,0.0,0.0,55,0.00,CLR,CLR,0.00,WeatherDisplay:10.37,2013-11-11 14:15:00,
2013-11-11 09:20:00,54.3,38.5,30.24,North,0,0.0,0.0,55,0.00,CLR,CLR,0.00,WeatherDisplay:10.37,2013-11-11 14:20:00,
2013-11-11 09:25:00,54.3,38.0,30.24,North,0,0.0,0.0,54,0.00,CLR,CLR,0.00,WeatherDisplay:10.37,2013-11-11 14:25:00,
2013-11-11 09:30:00,54.5,38.2,30.24,North,0,0.0,0.0,54,0.00,CLR,CLR,0.00,WeatherDisplay:10.37,2013-11-11 14:30:00,
2013-11-11 09:35:00,55.0,39.2,30.24,North,0,0.0,0.0,55,0.00,CLR,CLR,0.00,WeatherDisplay:10.37,2013-11-11 14:35:00,
2013-11-11 09:40:00,55.8,39.8,30.24,North,0,0.0,0.0,55,0.00,CLR,CLR,0.00,WeatherDisplay:10.37,2013-11-11 14:40:00,
2013-11-11 09:45:00,55.2,38.9,30.24,North,0,0.0,0.0,54,0.00,CLR,CLR,0.00,WeatherDisplay:10.37,2013-11-11 14:45:00,
2013-11-11 09:50:00,55.2,38.9,30.24,North,0,0.0,0.0,54,0.00,CLR,CLR,0.00,WeatherDisplay:10.37,2013-11-11 14:50:00,
2013-11-11 09:55:00,55.6,38.7,30.24,North,0,0.0,0.0,53,0.00,CLR,CLR,0.00,WeatherDisplay:10.37,2013-11-11 14:55:00,
2013-11-11 10:00:00,55.4,39.0,30.24,North,0,0.0,0.0,54,0.00,CLR,CLR,0.00,WeatherDisplay:10.37,2013-11-11 15:00:00,
2013-11-11 10:05:00,55.8,39.4,30.24,North,0,0.0,0.0,54,0.00,CLR,CLR,0.00,WeatherDisplay:10.37,2013-11-11 15:05:00,
2013-11-11 10:10:00,55.8,39.4,30.24,North,0,0.0,0.0,54,0.00,CLR,CLR,0.00,WeatherDisplay:10.37,2013-11-11 15:10:00,
2013-11-11 10:15:00,55.9,39.5,30.24,North,0,0.0,0.0,54,0.00,CLR,CLR,0.00,WeatherDisplay:10.37,2013-11-11 15:15:00,
2013-11-11 10:20:00,56.1,39.7,30.24,North,0,0.0,0.0,54,0.00,CLR,CLR,0.00,WeatherDisplay:10.37,2013-11-11 15:20:00,
2013-11-11 10:25:00,55.9,39.0,30.24,North,0,0.0,0.0,53,0.00,CLR,CLR,0.00,WeatherDisplay:10.37,2013-11-11 15:25:00,
2013-11-11 10:30:00,56.5,40.5,30.24,North,0,0.0,0.0,55,0.00,CLR,CLR,0.00,WeatherDisplay:10.37,2013-11-11 15:30:00,
2013-11-11 10:35:00,56.3,40.3,30.24,North,0,0.0,0.0,55,0.00,CLR,CLR,0.00,WeatherDisplay:10.37,2013-11-11 15:35:00,
2013-11-11 10:40:00,56.1,39.2,30.24,North,0,0.0,0.0,53,0.00,CLR,CLR,0.00,WeatherDisplay:10.37,2013-11-11 15:40:00,
2013-11-11 10:45:00,56.3,39.9,30.24,North,0,0.0,0.0,54,0.00,CLR,CLR,0.00,WeatherDisplay:10.37,2013-11-11 15:45:00,
2013-11-11 10:50:00,56.5,40.0,30.24,North,0,0.0,0.0,54,0.00,CLR,CLR,0.00,WeatherDisplay:10.37,2013-11-11 15:50:00,
2013-11-11 10:55:00,56.7,40.2,30.24,North,0,0.0,0.0,54,0.00,CLR,CLR,0.00,WeatherDisplay:10.37,2013-11-11 15:55:00,
2013-11-11 11:00:00,56.5,40.0,30.24,North,0,0.0,0.0,54,0.00,CLR,CLR,0.00,WeatherDisplay:10.37,2013-11-11 16:00:00,
2013-11-11 11:05:00,57.2,40.7,30.24,North,0,0.0,0.0,54,0.00,CLR,CLR,0.00,WeatherDisplay:10.37,2013-11-11 16:05:00,
2013-11-11 11:10:00,57.0,40.5,30.24,North,0,0.0,0.0,54,0.00,CLR,CLR,0.00,WeatherDisplay:10.37,2013-11-11 16:10:00,
2013-11-11 11:15:00,57.2,40.2,30.24,North,0,0.0,0.0,53,0.00,CLR,CLR,0.00,WeatherDisplay:10.37,2013-11-11 16:15:00,
2013-11-11 11:20:00,57.2,40.7,30.24,North,0,0.0,0.0,54,0.00,CLR,CLR,0.00,WeatherDisplay:10.37,2013-11-11 16:20:00,
2013-11-11 11:25:00,57.2,40.7,30.24,North,0,0.0,0.0,54,0.00,CLR,CLR,0.00,WeatherDisplay:10.37,2013-11-11 16:25:00,
2013-11-11 11:30:00,57.2,40.2,30.24,North,0,0.0,0.0,53,0.00,CLR,CLR,0.00,WeatherDisplay:10.37,2013-11-11 16:30:00,
2013-11-11 11:35:00,57.6,40.5,30.24,North,0,0.0,0.0,53,0.00,CLR,CLR,0.00,WeatherDisplay:10.37,2013-11-11 16:35:00,
2013-11-11 11:40:00,57.7,40.7,30.21,North,0,0.0,0.0,53,0.00,CLR,CLR,0.00,WeatherDisplay:10.37,2013-11-11 16:40:00,
2013-11-11 11:45:00,57.9,40.9,30.21,North,0,0.0,0.0,53,0.00,CLR,CLR,0.00,WeatherDisplay:10.37,2013-11-11 16:45:00,
2013-11-11 11:50:00,57.6,40.1,30.21,North,0,0.0,0.0,52,0.00,CLR,CLR,0.00,WeatherDisplay:10.37,2013-11-11 16:50:00,
2013-11-11 11:55:00,57.7,40.7,30.21,North,0,0.0,0.0,53,0.00,CLR,CLR,0.00,WeatherDisplay:10.37,2013-11-11 16:55:00,
2013-11-11 12:00:00,57.7,40.7,30.21,North,0,0.0,0.0,53,0.00,CLR,CLR,0.00,WeatherDisplay:10.37,2013-11-11 17:00:00,
2013-11-11 12:05:00,58.3,41.7,30.21,North,0,0.0,0.0,54,0.00,CLR,CLR,0.00,WeatherDisplay:10.37,2013-11-11 17:05:00,
2013-11-11 12:10:00,58.1,41.0,30.21,North,0,0.0,0.0,53,0.00,CLR,CLR,0.00,WeatherDisplay:10.37,2013-11-11 17:10:00,
2013-11-11 12:15:00,57.9,39.9,30.21,North,0,0.0,0.0,51,0.00,CLR,CLR,0.00,WeatherDisplay:10.37,2013-11-11 17:15:00,
2013-11-11 12:20:00,58.6,41.5,30.21,North,0,0.0,0.0,53,0.00,CLR,CLR,0.00,WeatherDisplay:10.37,2013-11-11 17:20:00,
2013-11-11 12:25:00,59.0,41.4,30.21,North,0,0.0,0.0,52,0.00,CLR,CLR,0.00,WeatherDisplay:10.37,2013-11-11 17:25:00,
2013-11-11 12:30:00,59.2,41.6,30.21,North,0,0.0,0.0,52,0.00,CLR,CLR,0.00,WeatherDisplay:10.37,2013-11-11 17:30:00,
2013-11-11 12:35:00,59.4,41.7,30.21,North,0,0.0,0.0,52,0.00,CLR,CLR,0.00,WeatherDisplay:10.37,2013-11-11 17:35:00,
2013-11-11 12:40:00,59.0,41.4,30.21,North,0,0.0,0.0,52,0.00,CLR,CLR,0.00,WeatherDisplay:10.37,2013-11-11 17:40:00,
2013-11-11 12:46:00,59.2,41.1,30.21,North,0,0.0,0.0,51,0.00,CLR,CLR,0.00,WeatherDisplay:10.37,2013-11-11 17:46:00,
2013-11-11 12:51:00,59.4,41.7,30.21,North,0,0.0,0.0,52,0.00,CLR,CLR,0.00,WeatherDisplay:10.37,2013-11-11 17:51:00,
2013-11-11 12:56:00,59.4,41.2,30.21,North,0,0.0,0.0,51,0.00,CLR,CLR,0.00,WeatherDisplay:10.37,2013-11-11 17:56:00,
2013-11-11 13:01:00,59.2,41.1,30.21,North,0,0.0,0.0,51,0.00,CLR,CLR,0.00,WeatherDisplay:10.37,2013-11-11 18:01:00,
2013-11-11 13:06:00,59.5,41.4,30.21,North,0,0.0,0.0,51,0.00,CLR,CLR,0.00,WeatherDisplay:10.37,2013-11-11 18:06:00,
2013-11-11 13:11:00,59.2,40.5,30.21,North,0,0.0,0.0,50,0.00,CLR,CLR,0.00,WeatherDisplay:10.37,2013-11-11 18:11:00,
2013-11-11 13:16:00,59.4,41.2,30.21,North,0,0.0,0.0,51,0.00,CLR,CLR,0.00,WeatherDisplay:10.37,2013-11-11 18:16:00,
2013-11-11 13:21:00,59.9,42.2,30.21,North,0,0.0,0.0,52,0.00,CLR,CLR,0.00,WeatherDisplay:10.37,2013-11-11 18:21:00,
2013-11-11 13:26:00,59.9,41.7,30.21,North,0,0.0,0.0,51,0.00,CLR,CLR,0.00,WeatherDisplay:10.37,2013-11-11 18:26:00,
2013-11-11 13:31:00,59.7,41.0,30.21,North,0,0.0,0.0,50,0.00,CLR,CLR,0.00,WeatherDisplay:10.37,2013-11-11 18:31:00,
2013-11-11 13:36:00,59.7,41.0,30.21,North,0,0.0,0.0,50,0.00,CLR,CLR,0.00,WeatherDisplay:10.37,2013-11-11 18:36:00,
2013-11-11 13:41:00,60.6,42.4,30.21,North,0,0.0,0.0,51,0.00,CLR,CLR,0.00,WeatherDisplay:10.37,2013-11-11 18:41:00,
2013-11-11 13:46:00,61.0,42.2,30.21,North,0,0.0,0.0,50,0.00,CLR,CLR,0.00,WeatherDisplay:10.37,2013-11-11 18:46:00,
2013-11-11 13:51:00,61.0,42.2,30.21,North,0,0.0,0.0,50,0.00,CLR,CLR,0.00,WeatherDisplay:10.37,2013-11-11 18:51:00,
2013-11-11 13:56:00,60.4,41.2,30.18,North,0,0.0,0.0,49,0.00,CLR,CLR,0.00,WeatherDisplay:10.37,2013-11-11 18:56:00,
2013-11-11 14:01:00,61.7,42.3,30.18,North,0,0.0,0.0,49,0.00,CLR,CLR,0.00,WeatherDisplay:10.37,2013-11-11 19:01:00,
2013-11-11 14:06:00,61.7,42.9,30.18,North,0,0.0,0.0,50,0.00,CLR,CLR,0.00,WeatherDisplay:10.37,2013-11-11 19:06:00,
2013-11-11 14:11:00,61.7,42.9,30.18,North,0,0.0,0.0,50,0.00,CLR,CLR,0.00,WeatherDisplay:10.37,2013-11-11 19:11:00,
2013-11-11 14:16:00,62.4,44.0,30.18,North,0,0.0,0.0,51,0.00,CLR,CLR,0.00,WeatherDisplay:10.37,2013-11-11 19:16:00,
2013-11-11 14:21:00,61.3,42.0,30.18,North,0,0.0,0.0,49,0.00,CLR,CLR,0.00,WeatherDisplay:10.37,2013-11-11 19:21:00,
2013-11-11 14:26:00,61.3,42.0,30.18,North,0,0.0,0.0,49,0.00,CLR,CLR,0.00,WeatherDisplay:10.37,2013-11-11 19:26:00,
2013-11-11 14:31:00,62.1,42.7,30.18,North,0,0.0,0.0,49,0.00,CLR,CLR,0.00,WeatherDisplay:10.37,2013-11-11 19:31:00,
2013-11-11 14:36:00,61.2,41.8,30.18,North,0,0.0,0.0,49,0.00,CLR,CLR,0.00,WeatherDisplay:10.37,2013-11-11 19:36:00,
2013-11-11 14:41:00,62.1,42.7,30.18,North,0,0.0,0.0,49,0.00,CLR,CLR,0.00,WeatherDisplay:10.37,2013-11-11 19:41:00,
2013-11-11 14:46:00,62.4,43.0,30.18,North,0,0.0,0.0,49,0.00,CLR,CLR,0.00,WeatherDisplay:10.37,2013-11-11 19:46:00,
2013-11-11 14:51:00,61.7,42.3,30.18,North,0,0.0,0.0,49,0.00,CLR,CLR,0.00,WeatherDisplay:10.37,2013-11-11 19:51:00,
2013-11-11 14:56:00,61.3,42.0,30.18,North,0,0.0,0.0,49,0.00,CLR,CLR,0.00,WeatherDisplay:10.37,2013-11-11 19:56:00,
2013-11-11 15:01:00,62.8,43.9,30.18,North,0,0.0,0.0,50,0.00,CLR,CLR,0.00,WeatherDisplay:10.37,2013-11-11 20:01:00,
2013-11-11 15:06:00,61.2,41.8,30.18,North,0,0.0,0.0,49,0.00,CLR,CLR,0.00,WeatherDisplay:10.37,2013-11-11 20:06:00,
2013-11-11 15:11:00,61.0,41.7,30.18,North,0,0.0,0.0,49,0.00,CLR,CLR,0.00,WeatherDisplay:10.37,2013-11-11 20:11:00,
2013-11-11 15:16:00,61.0,41.7,30.18,North,0,0.0,0.0,49,0.00,CLR,CLR,0.00,WeatherDisplay:10.37,2013-11-11 20:16:00,
2013-11-11 15:21:00,61.2,41.8,30.18,North,0,0.0,0.0,49,0.00,CLR,CLR,0.00,WeatherDisplay:10.37,2013-11-11 20:21:00,
2013-11-11 15:26:00,60.4,41.7,30.18,North,0,0.0,0.0,50,0.00,CLR,CLR,0.00,WeatherDisplay:10.37,2013-11-11 20:26:00,
2013-11-11 15:31:00,60.4,41.7,30.18,North,0,0.0,0.0,50,0.00,CLR,CLR,0.00,WeatherDisplay:10.37,2013-11-11 20:31:00,
2013-11-11 15:36:00,59.7,40.5,30.18,North,0,0.0,0.0,49,0.00,CLR,CLR,0.00,WeatherDisplay:10.37,2013-11-11 20:36:00,
2013-11-11 15:41:00,59.5,40.9,30.18,North,0,0.0,0.0,50,0.00,CLR,CLR,0.00,WeatherDisplay:10.37,2013-11-11 20:41:00,
2013-11-11 15:46:00,59.4,40.7,30.18,North,0,0.0,0.0,50,0.00,CLR,CLR,0.00,WeatherDisplay:10.37,2013-11-11 20:46:00,
2013-11-11 15:51:00,59.4,40.7,30.18,North,0,0.0,0.0,50,0.00,CLR,CLR,0.00,WeatherDisplay:10.37,2013-11-11 20:51:00,
2013-11-11 15:56:00,59.5,41.4,30.15,North,0,0.0,0.0,51,0.00,CLR,CLR,0.00,WeatherDisplay:10.37,2013-11-11 20:56:00,
2013-11-11 16:01:00,58.8,41.2,30.15,North,0,0.0,0.0,52,0.00,CLR,CLR,0.00,WeatherDisplay:10.37,2013-11-11 21:01:00,
2013-11-11 16:06:00,58.5,41.4,30.15,North,0,0.0,0.0,53,0.00,CLR,CLR,0.00,WeatherDisplay:10.37,2013-11-11 21:06:00,
2013-11-11 16:11:00,58.1,41.0,30.15,North,0,0.0,0.0,53,0.00,CLR,CLR,0.00,WeatherDisplay:10.37,2013-11-11 21:11:00,
2013-11-11 16:16:00,57.6,41.0,30.15,North,0,0.0,0.0,54,0.00,CLR,CLR,0.00,WeatherDisplay:10.37,2013-11-11 21:16:00,
2013-11-11 16:21:00,57.0,41.5,30.15,North,0,0.0,0.0,56,0.00,CLR,CLR,0.00,WeatherDisplay:10.37,2013-11-11 21:21:00,
2013-11-11 16:26:00,56.7,41.1,30.15,North,0,0.0,0.0,56,0.00,CLR,CLR,0.00,WeatherDisplay:10.37,2013-11-11 21:26:00,
2013-11-11 16:31:00,55.9,41.4,30.15,North,0,0.0,0.0,58,0.00,CLR,CLR,0.00,WeatherDisplay:10.37,2013-11-11 21:31:00,
2013-11-11 16:36:00,55.6,41.5,30.15,North,0,0.0,0.0,59,0.00,CLR,CLR,0.00,WeatherDisplay:10.37,2013-11-11 21:36:00,
2013-11-11 16:41:00,55.0,41.8,30.15,North,0,0.0,0.0,61,0.00,CLR,CLR,0.00,WeatherDisplay:10.37,2013-11-11 21:41:00,
2013-11-11 16:46:00,54.5,41.7,30.15,North,0,0.0,0.0,62,0.00,CLR,CLR,0.00,WeatherDisplay:10.37,2013-11-11 21:46:00,
2013-11-11 16:51:00,53.8,41.1,30.15,North,0,0.0,0.0,62,0.00,CLR,CLR,0.00,WeatherDisplay:10.37,2013-11-11 21:51:00,
2013-11-11 16:56:00,53.6,41.3,30.18,North,0,0.0,0.0,63,0.00,CLR,CLR,0.00,WeatherDisplay:10.37,2013-11-11 21:56:00,
2013-11-11 17:01:00,53.2,41.8,30.18,North,0,0.0,0.0,65,0.00,CLR,CLR,0.00,WeatherDisplay:10.37,2013-11-11 22:01:00,
2013-11-11 17:06:00,53.1,41.6,30.18,North,0,0.0,0.0,65,0.00,CLR,CLR,0.00,WeatherDisplay:10.37,2013-11-11 22:06:00,
2013-11-11 17:11:00,52.5,41.5,30.15,North,0,0.0,0.0,66,0.00,CLR,CLR,0.00,WeatherDisplay:10.37,2013-11-11 22:11:00,
2013-11-11 17:16:00,52.0,41.0,30.15,North,0,0.0,0.0,66,0.00,CLR,CLR,0.00,WeatherDisplay:10.37,2013-11-11 22:16:00,
2013-11-11 17:21:00,51.8,41.2,30.15,North,0,0.0,0.0,67,0.00,CLR,CLR,0.00,WeatherDisplay:10.37,2013-11-11 22:21:00,
2013-11-11 17:26:00,51.4,40.8,30.18,North,0,0.0,0.0,67,0.00,CLR,CLR,0.00,WeatherDisplay:10.37,2013-11-11 22:26:00,
2013-11-11 17:31:00,50.2,40.0,30.18,North,0,0.0,0.0,68,0.00,CLR,CLR,0.00,WeatherDisplay:10.37,2013-11-11 22:31:00,
2013-11-11 17:36:00,49.5,40.1,30.18,North,0,0.0,0.0,70,0.00,CLR,CLR,0.00,WeatherDisplay:10.37,2013-11-11 22:36:00,
2013-11-11 17:41:00,49.3,40.3,30.18,North,0,0.0,0.0,71,0.00,CLR,CLR,0.00,WeatherDisplay:10.37,2013-11-11 22:41:00,
2013-11-11 17:46:00,48.9,39.9,30.18,North,0,0.0,0.0,71,0.00,CLR,CLR,0.00,WeatherDisplay:10.37,2013-11-11 22:46:00,
2013-11-11 17:51:00,48.9,39.9,30.18,North,0,0.0,0.0,71,0.00,CLR,CLR,0.00,WeatherDisplay:10.37,2013-11-11 22:51:00,
2013-11-11 17:56:00,48.9,39.9,30.15,North,0,0.0,0.0,71,0.00,CLR,CLR,0.00,WeatherDisplay:10.37,2013-11-11 22:56:00,
2013-11-11 18:01:00,48.2,39.6,30.15,North,0,0.0,0.0,72,0.00,CLR,CLR,0.00,WeatherDisplay:10.37,2013-11-11 23:01:00,
2013-11-11 18:06:00,47.7,39.4,30.15,North,0,0.0,0.0,73,0.00,CLR,CLR,0.00,WeatherDisplay:10.37,2013-11-11 23:06:00,
2013-11-11 18:11:00,47.3,39.1,30.15,North,0,0.0,0.0,73,0.00,CLR,CLR,0.00,WeatherDisplay:10.37,2013-11-11 23:11:00,
2013-11-11 18:16:00,47.3,39.4,30.15,North,0,0.0,0.0,74,0.00,CLR,CLR,0.00,WeatherDisplay:10.37,2013-11-11 23:16:00,
2013-11-11 18:21:00,46.6,38.7,30.15,North,0,0.0,0.0,74,0.00,CLR,CLR,0.00,WeatherDisplay:10.37,2013-11-11 23:21:00,
2013-11-11 18:26:00,46.2,38.7,30.15,North,0,0.0,0.0,75,0.00,CLR,CLR,0.00,WeatherDisplay:10.37,2013-11-11 23:26:00,
2013-11-11 18:31:00,46.6,39.1,30.15,North,0,0.0,0.0,75,0.00,CLR,CLR,0.00,WeatherDisplay:10.37,2013-11-11 23:31:00,
2013-11-11 18:36:00,46.4,38.9,30.15,North,0,0.0,0.0,75,0.00,CLR,CLR,0.00,WeatherDisplay:10.37,2013-11-11 23:36:00,
2013-11-11 18:41:00,46.0,38.6,30.15,North,0,0.0,0.0,75,0.00,CLR,CLR,0.00,WeatherDisplay:10.37,2013-11-11 23:41:00,
2013-11-11 18:46:00,45.3,38.2,30.15,North,0,0.0,0.0,76,0.00,CLR,CLR,0.00,WeatherDisplay:10.37,2013-11-11 23:46:00,
2013-11-11 18:51:00,44.8,37.7,30.15,North,0,0.0,0.0,76,0.00,CLR,CLR,0.00,WeatherDisplay:10.37,2013-11-11 23:51:00,
2013-11-11 18:56:00,44.8,38.0,30.15,North,0,0.0,0.0,77,0.00,CLR,CLR,0.00,WeatherDisplay:10.37,2013-11-11 23:56:00,
2013-11-11 19:01:00,44.4,38.0,30.15,North,0,0.0,0.0,78,0.00,CLR,CLR,0.00,WeatherDisplay:10.37,2013-11-12 00:01:00,
2013-11-11 19:06:00,44.6,38.2,30.15,North,0,0.0,0.0,78,0.00,CLR,CLR,0.00,WeatherDisplay:10.37,2013-11-12 00:06:00,
2013-11-11 19:11:00,44.2,38.1,30.15,North,0,0.0,0.0,79,0.00,CLR,CLR,0.00,WeatherDisplay:10.37,2013-11-12 00:11:00,
2013-11-11 19:16:00,44.4,38.3,30.15,North,0,0.0,0.0,79,0.00,CLR,CLR,0.00,WeatherDisplay:10.37,2013-11-12 00:16:00,
2013-11-11 19:21:00,44.2,38.1,30.15,North,0,0.0,0.0,79,0.00,CLR,CLR,0.00,WeatherDisplay:10.37,2013-11-12 00:21:00,
2013-11-11 19:26:00,43.9,37.8,30.15,North,0,0.0,0.0,79,0.00,CLR,CLR,0.00,WeatherDisplay:10.37,2013-11-12 00:26:00,
2013-11-11 19:31:00,43.3,37.6,30.15,North,0,0.0,0.0,80,0.00,CLR,CLR,0.00,WeatherDisplay:10.37,2013-11-12 00:31:00,
2013-11-11 19:36:00,43.2,37.4,30.15,North,0,0.0,0.0,80,0.00,CLR,CLR,0.00,WeatherDisplay:10.37,2013-11-12 00:36:00,
2013-11-11 19:41:00,43.0,37.2,30.15,North,0,0.0,0.0,80,0.00,CLR,CLR,0.00,WeatherDisplay:10.37,2013-11-12 00:41:00,
2013-11-11 19:46:00,42.8,37.1,30.15,North,0,0.0,0.0,80,0.00,CLR,CLR,0.00,WeatherDisplay:10.37,2013-11-12 00:46:00,
2013-11-11 19:51:00,42.8,37.1,30.15,North,0,0.0,0.0,80,0.00,CLR,CLR,0.00,WeatherDisplay:10.37,2013-11-12 00:51:00,
2013-11-11 19:56:00,42.8,37.4,30.15,North,0,0.0,0.0,81,0.00,CLR,CLR,0.00,WeatherDisplay:10.37,2013-11-12 00:56:00,
2013-11-11 20:01:00,42.4,37.3,30.15,North,0,0.0,0.0,82,0.00,CLR,CLR,0.00,WeatherDisplay:10.37,2013-11-12 01:01:00,
2013-11-11 20:06:00,42.4,37.3,30.15,North,0,0.0,0.0,82,0.00,CLR,CLR,0.00,WeatherDisplay:10.37,2013-11-12 01:06:00,
2013-11-11 20:11:00,42.4,37.6,30.15,North,0,0.0,0.0,83,0.00,CLR,CLR,0.00,WeatherDisplay:10.37,2013-11-12 01:11:00,
2013-11-11 20:16:00,42.3,37.5,30.15,North,0,0.0,0.0,83,0.00,CLR,CLR,0.00,WeatherDisplay:10.37,2013-11-12 01:16:00,
2013-11-11 20:21:00,41.7,37.2,30.15,North,0,0.0,0.0,84,0.00,CLR,CLR,0.00,WeatherDisplay:10.37,2013-11-12 01:21:00,
2013-11-11 20:26:00,41.5,37.1,30.15,North,0,0.0,0.0,84,0.00,CLR,CLR,0.00,WeatherDisplay:10.37,2013-11-12 01:26:00,
2013-11-11 20:31:00,41.2,37.0,30.15,North,0,0.0,0.0,85,0.00,CLR,CLR,0.00,WeatherDisplay:10.37,2013-11-12 01:31:00,
2013-11-11 20:36:00,41.5,37.4,30.15,North,0,0.0,0.0,85,0.00,CLR,CLR,0.00,WeatherDisplay:10.37,2013-11-12 01:36:00,
2013-11-11 20:41:00,41.5,37.1,30.15,North,0,0.0,0.0,84,0.00,CLR,CLR,0.00,WeatherDisplay:10.37,2013-11-12 01:41:00,
2013-11-11 20:46:00,41.7,37.2,30.15,North,0,0.0,0.0,84,0.00,CLR,CLR,0.00,WeatherDisplay:10.37,2013-11-12 01:46:00,
2013-11-11 20:51:00,41.7,37.2,30.15,North,0,0.0,0.0,84,0.00,CLR,CLR,0.00,WeatherDisplay:10.37,2013-11-12 01:51:00,
2013-11-11 20:57:00,41.5,37.1,30.12,North,0,0.0,0.0,84,0.00,CLR,CLR,0.00,WeatherDisplay:10.37,2013-11-12 01:57:00,
2013-11-11 21:02:00,41.0,36.5,30.12,North,0,0.0,0.0,84,0.00,CLR,CLR,0.00,WeatherDisplay:10.37,2013-11-12 02:02:00,
2013-11-11 21:07:00,41.2,37.0,30.12,North,0,0.0,0.0,85,0.00,CLR,CLR,0.00,WeatherDisplay:10.37,2013-11-12 02:07:00,
2013-11-11 21:12:00,41.4,37.2,30.12,North,0,0.0,0.0,85,0.00,CLR,CLR,0.00,WeatherDisplay:10.37,2013-11-12 02:12:00,
2013-11-11 21:17:00,41.2,37.0,30.12,North,0,0.0,0.0,85,0.00,CLR,CLR,0.00,WeatherDisplay:10.37,2013-11-12 02:17:00,
2013-11-11 21:22:00,41.2,37.0,30.12,North,0,0.0,0.0,85,0.00,CLR,CLR,0.00,WeatherDisplay:10.37,2013-11-12 02:22:00,
2013-11-11 21:27:00,40.5,36.9,30.15,North,0,0.0,0.0,87,0.00,CLR,CLR,0.00,WeatherDisplay:10.37,2013-11-12 02:27:00,
2013-11-11 21:32:00,40.3,36.7,30.15,North,0,0.0,0.0,87,0.00,CLR,CLR,0.00,WeatherDisplay:10.37,2013-11-12 02:32:00,
2013-11-11 21:37:00,40.3,36.7,30.15,North,0,0.0,0.0,87,0.00,CLR,CLR,0.00,WeatherDisplay:10.37,2013-11-12 02:37:00,
2013-11-11 21:42:00,40.3,36.7,30.12,North,0,0.0,0.0,87,0.00,CLR,CLR,0.00,WeatherDisplay:10.37,2013-11-12 02:42:00,
2013-11-11 21:47:00,40.1,36.8,30.12,North,0,0.0,0.0,88,0.00,CLR,CLR,0.00,WeatherDisplay:10.37,2013-11-12 02:47:00,
2013-11-11 21:52:00,39.9,36.7,30.12,North,0,0.0,0.0,88,0.00,CLR,CLR,0.00,WeatherDisplay:10.37,2013-11-12 02:52:00,
2013-11-11 21:57:00,39.9,36.7,30.12,North,0,0.0,0.0,88,0.00,CLR,CLR,0.00,WeatherDisplay:10.37,2013-11-12 02:57:00,
2013-11-11 22:02:00,39.9,39.9,30.12,North,0,0.0,0.0,100,0.00,CLR,CLR,0.00,WeatherDisplay:10.37,2013-11-12 03:02:00,
2013-11-11 22:07:00,40.3,37.0,30.12,North,0,0.0,0.0,88,0.00,CLR,CLR,0.00,WeatherDisplay:10.37,2013-11-12 03:07:00,
2013-11-11 22:12:00,39.9,36.7,30.12,North,0,0.0,0.0,88,0.00,CLR,CLR,0.00,WeatherDisplay:10.37,2013-11-12 03:12:00,
2013-11-11 22:17:00,39.6,36.3,30.12,North,0,0.0,0.0,88,0.00,CLR,CLR,0.00,WeatherDisplay:10.37,2013-11-12 03:17:00,
2013-11-11 22:22:00,39.4,36.1,30.12,North,0,0.0,0.0,88,0.00,CLR,CLR,0.00,WeatherDisplay:10.37,2013-11-12 03:22:00,
2013-11-11 22:27:00,39.7,36.5,30.12,North,0,0.0,0.0,88,0.00,CLR,CLR,0.00,WeatherDisplay:10.37,2013-11-12 03:27:00,
2013-11-11 22:32:00,39.9,36.7,30.12,North,0,0.0,0.0,88,0.00,CLR,CLR,0.00,WeatherDisplay:10.37,2013-11-12 03:32:00,
2013-11-11 22:37:00,39.7,36.5,30.12,North,0,0.0,0.0,88,0.00,CLR,CLR,0.00,WeatherDisplay:10.37,2013-11-12 03:37:00,
2013-11-11 22:42:00,39.6,36.3,30.12,North,0,0.0,0.0,88,0.00,CLR,CLR,0.00,WeatherDisplay:10.37,2013-11-12 03:42:00,
2013-11-11 22:47:00,39.2,35.9,30.12,North,0,0.0,0.0,88,0.00,CLR,CLR,0.00,WeatherDisplay:10.37,2013-11-12 03:47:00,
2013-11-11 22:52:00,39.2,35.9,30.12,North,0,0.0,0.0,88,0.00,CLR,CLR,0.00,WeatherDisplay:10.37,2013-11-12 03:52:00,
2013-11-11 22:57:00,39.0,35.8,30.12,North,0,0.0,0.0,88,0.00,CLR,CLR,0.00,WeatherDisplay:10.37,2013-11-12 03:57:00,
2013-11-11 23:02:00,39.0,35.8,30.12,North,0,0.0,0.0,88,0.00,CLR,CLR,0.00,WeatherDisplay:10.37,2013-11-12 04:02:00,
2013-11-11 23:07:00,39.2,35.9,30.12,North,0,0.0,0.0,88,0.00,CLR,CLR,0.00,WeatherDisplay:10.37,2013-11-12 04:07:00,
2013-11-11 23:12:00,39.2,35.9,30.12,North,0,0.0,0.0,88,0.00,CLR,CLR,0.00,WeatherDisplay:10.37,2013-11-12 04:12:00,
2013-11-11 23:17:00,39.0,35.8,30.12,North,0,0.0,0.0,88,0.00,CLR,CLR,0.00,WeatherDisplay:10.37,2013-11-12 04:17:00,
2013-11-11 23:22:00,38.7,35.4,30.12,North,0,0.0,0.0,88,0.00,CLR,CLR,0.00,WeatherDisplay:10.37,2013-11-12 04:22:00,
2013-11-11 23:27:00,38.8,35.6,30.09,North,0,0.0,0.0,88,0.00,CLR,CLR,0.00,WeatherDisplay:10.37,2013-11-12 04:27:00,
2013-11-11 23:32:00,39.0,35.8,30.09,North,0,0.0,0.0,88,0.00,CLR,CLR,0.00,WeatherDisplay:10.37,2013-11-12 04:32:00,
2013-11-11 23:37:00,39.2,35.9,30.09,North,0,0.0,0.0,88,0.00,CLR,CLR,0.00,WeatherDisplay:10.37,2013-11-12 04:37:00,
2013-11-11 23:42:00,39.6,36.3,30.12,North,0,0.0,0.0,88,0.00,CLR,CLR,0.00,WeatherDisplay:10.37,2013-11-12 04:42:00,
2013-11-11 23:47:00,39.6,36.3,30.12,North,0,0.0,0.0,88,0.00,CLR,CLR,0.00,WeatherDisplay:10.37,2013-11-12 04:47:00,
2013-11-11 23:52:00,39.0,36.1,30.12,North,0,0.0,0.0,89,0.00,CLR,CLR,0.00,WeatherDisplay:10.37,2013-11-12 04:52:00,
2013-11-11 23:57:00,38.8,35.9,30.09,North,0,0.0,0.0,89,0.00,CLR,CLR,0.00,WeatherDisplay:10.37,2013-11-12 04:57:00,